This is the latest recevied weather packets stored in our database for station/object WIII. If no packets are shown the sender has not sent any weather packets the latest 10 day(s).
| Time | Temp. | Humidity | Pressure | Rain* | Wind** | Luminosity | Snow |
|---|---|---|---|---|---|---|---|
| 1787877826 | 26.67° C | 69% | 1014 hPa | - | - | - | - |
| 1787874228 | 25° C | 78% | 1013 hPa | - | - | - | - |
| 1787873628 | 25° C | 78% | 1013 hPa | - | - | - | - |
| 1787871829 | 25° C | 78% | 1013 hPa | - | - | - | - |
| 1787868828 | 25° C | 78% | 1012 hPa | - | - | - | - |
| 1787868232 | 25° C | 78% | 1004 hPa | - | - | - | - |
| 1787867029 | 25° C | 78% | 1004 hPa | - | - | - | - |
| 1787866426 | 25° C | 78% | 1012 hPa | - | - | - | - |
| 1787865827 | 25° C | 78% | 1012 hPa | - | - | - | - |
| 1787865226 | 25° C | 78% | 1012 hPa | - | - | - | - |
| 1787863426 | 25° C | 78% | 1012 hPa | - | - | - | - |
| 1787862827 | 25.56° C | 74% | 1005 hPa | - | - | - | - |
| 1787861629 | 25.56° C | 74% | 1013 hPa | - | - | - | - |
| 1787859827 | 25.56° C | 78% | 1013 hPa | - | - | - | - |
| 1787859229 | 26.67° C | 74% | 1013 hPa | - | - | - | - |
| 1787858627 | 26.67° C | 74% | 1013 hPa | - | - | - | - |
| 1787855630 | 26.67° C | 74% | 1013 hPa | - | - | - | - |
| 1787855028 | 26.67° C | 74% | 1013 hPa | - | - | - | - |
| 1787854429 | 26.67° C | 74% | 1013 hPa | - | - | - | - |
| 1787852629 | 27.78° C | 69% | 1013 hPa | - | - | - | - |
| 1787852028 | 27.78° C | 69% | 1014 hPa | - | - | - | - |
| 1787851429 | 27.78° C | 69% | 1014 hPa | - | - | - | - |
| 1787850228 | 27.78° C | 74% | 1014 hPa | - | - | - | - |
| 1787848429 | 27.78° C | 69% | 1014 hPa | - | - | - | - |
| 1787847831 | 27.78° C | 69% | 1014 hPa | - | - | - | - |
* Rain since midnight (hover to see other rain measurements)
** Current wind speed in m/s (hover to see current wind gust speed)